Flag for Comoros Weather past 2 weeks in Moroni, Comoros

Now
75 °F

Mild.


Feels Like: 77 °F
Forecast: 74 / 83 °F
Wind: 7 mph from Northeast

Location: Dzaoudzi / Pamanzi Mayotte

Current Time: Sep 18, 2014 at 3:29:08 AM

Latest Report: Sep 18, 2014 at 3:00 AM


Visibility: N/A

Pressure: 29.95 "Hg

Humidity: 74%

Dew point: 66 °F

Location of MoroniLocation

Historic Weather in Moroni — Graph

°F

Moroni temperature yesterday

Maximum temperature yesterday: 84 °F (at 12:05 PM)
Minimum temperature yesterday: 70 °F (at 3:00 AM)
Average temperature yesterday: 77 °F

Past Weeks' High & Low Weather Summary

 TemperatureHumidityPressure
High86 °F (Sep 7, 11:30 AM)94% (Sep 5, 1:00 AM)30.12 "Hg (Sep 5, 1:00 AM)
Low70 °F (Sep 5, 12:30 AM)55% (Sep 3, 10:30 AM)29.92 "Hg (Sep 3, 2:30 AM)
Average78 °F74%30.04 "Hg
* Reported Sep 3 2:00 AM — Sep 18 2:30 AM, Moroni, Weather by CustomWeather, © 2014

Note: Actual official high and low records may vary slightly from our data, if they occured in-between our weather recording intervals... More about our weather records

Advertising

Moroni weather history for previous 24 hours

 ConditionsComfort  
Time TempWeatherWind HumidityBarometerVisibility
2:30 AM
Sep 18
75 °FMild.6 mph74%29.95 "HgN/A
2:00 AM75 °FMild.6 mph74%29.95 "HgN/A
1:30 AM75 °FMild.8 mph78%29.95 "HgN/A
1:00 AM75 °FMild.8 mph74%29.95 "HgN/A
12:30 AM75 °FMild.9 mph74%29.95 "HgN/A
12:00 AM75 °FMild.7 mph74%29.98 "HgN/A
11:30 PM
Sep 17
73 °FMild.2 mph78%29.98 "HgN/A
11:00 PM75 °FMild.5 mph74%29.98 "HgN/A
10:30 PM75 °FMild.3 mph74%30.01 "HgN/A
10:00 PM75 °FMild.5 mph78%30.01 "HgN/A
9:30 PM75 °FPassing clouds.3 mph78%30.01 "HgN/A
9:00 PM75 °FMild.3 mph74%30.01 "Hg4 mi
8:30 PM75 °FMild.3 mph74%30.01 "HgN/A
8:00 PM75 °FMild.2 mph74%30.01 "HgN/A
7:30 PM75 °FMild.3 mph74%29.98 "HgN/A
7:00 PM77 °FHaze.3 mph74%29.98 "Hg2 mi
6:30 PM77 °FWarm.5 mph74%29.98 "HgN/A
6:00 PM77 °FPassing clouds.5 mph74%29.98 "HgN/A
5:30 PM79 °FPassing clouds.5 mph70%29.95 "HgN/A
5:00 PM79 °FPassing clouds.6 mph70%29.95 "HgN/A
4:30 PM79 °FPassing clouds.7 mph70%29.95 "HgN/A
4:00 PM82 °FScattered clouds.7 mph62%29.95 "HgN/A
3:30 PM81 °FScattered clouds.7 mph66%29.95 "HgN/A
3:00 PM82 °FPassing clouds.7 mph62%29.95 "HgN/A
2:30 PM82 °FPassing clouds.8 mph62%29.95 "HgN/A
2:00 PM82 °FPassing clouds.8 mph62%29.95 "HgN/A
1:47 PM82 °FPassing clouds.7 mph62%29.95 "HgN/A
1:00 PM82 °FPassing clouds.8 mph62%29.95 "HgN/A
12:30 PM82 °FPassing clouds.9 mph58%29.98 "HgN/A
12:05 PM84 °FPassing clouds.8 mph55%29.98 "HgN/A
11:30 AM82 °FPassing clouds.8 mph58%30.01 "HgN/A
11:00 AM82 °FPassing clouds.9 mph58%30.01 "HgN/A
10:30 AM82 °FPassing clouds.9 mph58%30.01 "HgN/A
10:07 AM82 °FPassing clouds.9 mph58%30.04 "HgN/A
9:30 AM82 °FPassing clouds.8 mph58%30.04 "HgN/A
9:00 AM81 °FPassing clouds.9 mph62%30.04 "HgN/A
8:30 AM81 °FPassing clouds.10 mph62%30.04 "HgN/A
7:30 AM77 °FPassing clouds.6 mph79%30.01 "HgN/A
7:00 AM75 °FPassing clouds.6 mph83%30.01 "HgN/A
6:30 AM73 °FPassing clouds.5 mph83%30.01 "HgN/A
6:04 AM72 °FPassing clouds.5 mph88%30.01 "HgN/A
5:00 AM70 °FPassing clouds.1 mph94%29.98 "HgN/A
4:30 AM70 °FPassing clouds.No wind88%29.98 "Hg5 mi
4:00 AM70 °FPassing clouds.2 mph94%29.98 "HgN/A
3:30 AM72 °FMild.No wind88%29.98 "HgN/A
3:00 AM70 °FFog.2 mph88%29.95 "Hg3 mi
Weather by CustomWeather, © 2014

See weather overviewHow to use our weather pages